Have a License from Another Country? Want to Convert to A US License? We can Help!

 

 

 

 

 

 

 

 

 

 

Learn More

ADF AIRWAYS. MIAMI FLORIDA’S PREMIER FLIGHT TRAINING ACADEMY

Thank you for visiting ADF Airways. Located in Miami, Florida, ADF airways is a premier Flight Training school dedicated to helping those who want to learn how to fly. Whether you are a new student seeking a license to fly for fun, or an advanced pilot looking to get your ATP rating, we’re confident ADF Airways will exceed your expectations!

 

OVER 3 DECADES OF EXPERIENCE WITH A PERSONAL TOUCH

ADF Airways has been in the business of helping pilots since 1986. We take an individual approach to flight training, and can tailor your experience at whatever pace you choose. Our instructors have a combined experience of well over 40 years in the business, and we’re sure we will be able to help you live your dream. ADF Airways is :

  • An FAA-approved Part 141 Flight Academy (Part 61 training available)
  • Approved by the Department of Veterans Affairs (VA)
  • An experiecnced leader in helping students attatin a full range of ratings from Private Pilot to Airline Transport Pilot with Jet Transition training.
  • A strong partner that assists  foreign students to gain FAA ratings and student visas.
  • A quality centered organization that provides experienced Flight Instructors
  • A large provider of a wide range of single and multi-engine aircraft.

ADF Airways has been providing quality Flight instruction for over 3 decades. Established in 1986, we are located at the Kendall-Tamiami Executive Airport (TMB) in Miami, Florida. We have grown into an institution of more than 200 active students. ADF Airways is dedicated to giving each person the personal attention he or she deserves. Our experienced flight instructor staff truly enjoys teaching and giving their undivided attention to the wants and needs of each student. They here just to to help you succeed!

 

 

Our Programs and Services

ADF Airways offers a variety of programs to suit your needs. Click on any of the links below for more information

Private Pilot Course

Foreign License Conversion

Instrument Rating Course

Jet Transition Program

Commercial Pilot Course

CFI Course

FAA Testing Center

Facebook By Weblizar Powered By Weblizar

METARS

KTMB 171753Z 11009KT 10SM FEW038 SCT047 27/17 A3021 RMK AO2 SLP228 T02720167 10272 20189 58014

KOPF 171753Z 16009KT CLR 27/16 A3021 RMK AO2 SLP232 T02670156 10278 20194 58015 $

KFLL 171753Z 16012KT 10SM FEW035 FEW250 26/17 A3020 RMK AO2 SLP227 T02560167 10261 20228 58014

TAF INFORMATION

TAF KTMB 171735Z 1718/1818 13010KT P6SM SCT035 SCT050 BKN250 FM180000 12006KT P6SM FEW025 SCT250 FM181400 13008KT P6SM FEW025 SCT250

TAF KOPF 171735Z 1718/1818 12010KT P6SM SCT035 SCT050 BKN250 FM180000 12006KT P6SM FEW025 SCT250 FM181400 13008KT P6SM FEW025 SCT250

TAF KFLL 171735Z 1718/1818 14012KT P6SM FEW035 SCT250 FM180000 13007KT P6SM FEW025 SCT250 FM181400 14008KT P6SM FEW025 SCT250

SO MANY GRADUATES, SO MANY DREAMS MADE REALITY

ADF Airways has graduated many students over its 30 plus years in the business. The above gallery shows just a sample of our most recent graduates. Click here to see our gallery of graduates page.

PARTNERS